Regional Weather Roundup
Issued by NWS San Angelo, TX

Home | Current Version | Previous Version | Text Only | Print | Product List | Glossary On
Versions: 1 2 3 4 5 6 7 8 9 10 11 12 13 14 15 16 17 18 19 20 21 22 23 24 25 26 27 28 29 30 31 32 33 34 35 36 37 38 39 40 41 42 43 44 45 46 47 48 49 50
000
ASUS44 KSJT 310810
RWRSJT
WEST CENTRAL TEXAS REGIONAL WEATHER ROUNDUP
NATIONAL WEATHER SERVICE SAN ANGELO TX
300 AM CDT SUN AUG 31 2014

NOTE: "FAIR" INDICATES FEW OR NO CLOUDS BELOW 12,000 FEET WITH NO
SIGNIFICANT WEATHER AND/OR OBSTRUCTIONS TO VISIBILITY.

TXZ049-054-064>066-071>073-076>078-098-099-113-114-127-128-139-140-
154-155-168>170-310900
...LOCATIONS ACROSS WEST CENTRAL TEXAS...

CITY           SKY/WX    TMP DP  RH WIND       PRES   REMARKS
SAN ANGELO     CLEAR     74  65  73 CALM      29.96S
ABILENE        CLEAR     77  66  68 S9        29.95F
DYESS AFB      CLEAR     75  67  74 S9        29.94S
JUNCTION       CLEAR     76  68  76 S7        29.98S
SWEETWATER     CLEAR     75  66  75 S10       29.99F
BROWNWOOD      PTCLDY    73  68  83 S3        29.95F
COLEMAN        SUNNY     74  67  77 S5        29.96F
SONORA         CLEAR     75  68  78 S6        30.03S
OZONA          FAIR      73  64  73 S7        30.02S
BRADY          CLEAR     73  66  78 SE5       29.98S
$$

TEXAS PANHANDLE/OKLAHOMA PANHANDLE

CITY           SKY/WX    TMP DP  RH WIND       PRES   REMARKS
AMARILLO       PTCLDY    75  54  47 S18       29.97F
BORGER         CLEAR     78  55  44 S17G25    29.92F
CANADIAN       MOCLDY    76  63  64 S17       29.89F
DALHART        PTCLDY    72  50  45 S16       29.98S
DUMAS          SUNNY     71  52  52 S15       29.95F
GUYMON         NOT AVBL
HEREFORD       SUNNY     70  55  59 S13G18    30.00F
PAMPA          MOSUNNY   74  54  49 S18G26    29.96S
PERRYTON       PTCLDY    72  59  64 S10       29.91F
$$

SOUTHERN PANHANDLE/SOUTH PLAINS/ROLLING PLAINS

CITY           SKY/WX    TMP DP  RH WIND       PRES   REMARKS
LUBBOCK        PTCLDY    74  60  61 S12       29.99S
SNYDER         CLEAR     73  65  74 SE6       29.98S
CHILDRESS      MOCLDY    78  63  59 S12       29.92F
SEMINOLE       SUNNY     74  60  60 S7        30.01S
$$

PERMIAN BASIN

CITY           SKY/WX    TMP DP  RH WIND       PRES   REMARKS
MIDLAND        CLEAR     79  63  57 S14       29.99S
ODESSA         CLEAR     79  61  53 S12       30.00F
WINK           PTCLDY    80  63  55 SE12      29.96S
$$

FAR WEST/SOUTHWEST MOUNTAINS/TRANS PECOS

CITY           SKY/WX    TMP DP  RH WIND       PRES   REMARKS
ALPINE         SUNNY     74  57  55 S9        30.15R
DRYDEN           N/A     85  64  49 SE10      29.95S
EL PASO        CLEAR     77  47  34 SE7       29.99R
FORT STOCKTON  CLEAR     77  61  57 S12       29.99S
GUADALUPE PASS CLEAR     73  49  42 NE15      30.14F
MARFA          CLEAR     66  55  68 S6        30.15S
PECOS          SUNNY     76  62  61 E8        29.95S
$$

DALLAS/FORT WORTH METROPLEX

CITY           SKY/WX    TMP DP  RH WIND       PRES   REMARKS
DFW AIRPORT    CLEAR     78  69  73 E5        29.92R
FTW MEACHAM    CLEAR     79  68  69 S7        29.91F
DAL-EXECUTIVE  CLEAR     80  70  71 S7        29.93R
GRAND PRAIRIE  CLEAR     80  68  68 S8        29.93S
ADDISON        CLEAR     81  68  66 SE8       29.95R
MESQUITE       SUNNY     75  71  87 SE6       29.94S
LANCASTER      SUNNY     74  70  86 SE3       29.95R
$$

NORTH CENTRAL TEXAS

CITY           SKY/WX    TMP DP  RH WIND       PRES   REMARKS
SHRMAN/DENISON SUNNY     77  68  74 SE10      29.94S
GAINESVILLE    CLEAR     74  69  86 SE3       29.94F
BRIDGEPORT     SUNNY     75  67  75 CALM      29.93F
DENTON         CLEAR     77  69  76 SE7       29.92S
WAXAHACHIE     SUNNY     76  68  77 S8        29.95R
GRANBURY       SUNNY     80  69  68 SE3       29.93S
$$

WESTERN NORTH TEXAS

CITY           SKY/WX    TMP DP  RH WIND       PRES   REMARKS
WICHITA FALLS  CLEAR     77  69  76 S9        29.89F
VERNON         SUNNY     79  67  66 S10       29.91S
BRECKENRIDGE   SUNNY     79  67  67 S7        29.93R
COMANCHE         N/A     75  68  77 S8        29.95F
$$

CENTRAL AND SOUTH CENTRAL TEXAS

CITY           SKY/WX    TMP DP  RH WIND       PRES   REMARKS
AUSTIN/BERGSTM PTCLDY    75  72  90 S5        29.96S
WACO           CLEAR     79  72  79 S14       29.95R
HILLSBORO      SUNNY     78  69  73 S10       29.95R
TEMPLE         CLEAR     77  68  73 S14       29.95S
KILLEEN-GRAY   PTCLDY    79  73  83 S14       29.96S
FORT HOOD      CLEAR     79  72  79 SE8       29.96S
GEORGETOWN     PTCLDY    79  72  78 S7        29.99S
LAGO VISTA     CLOUDY    78  72  81 S5        29.99S
SAN MARCOS     PTCLDY    75  68  78 SW3       29.99S
NEW BRAUNFELS  MOCLDY    76  72  87 SW5       29.96S
RANDOLPH AFB   CLOUDY    77  72  82 S6        29.98S
SAN ANTONIO    MOCLDY    79  72  79 S8        29.98S
STINSON        CLOUDY    78  73  84 S8        29.95F
PLEASANTON     NOT AVBL
LA GRANGE      MOCLDY    76  74  93 CALM      29.94S
GIDDINGS       MOSUNNY   75  71  87 CALM      30.00F
$$

EAST TEXAS

CITY           SKY/WX    TMP DP  RH WIND       PRES   REMARKS
PARIS          CLEAR     73  66  78 S6        29.95S
CLARKSVILLE    NOT AVBL
TYLER          CLOUDY    78  74  87 S9        29.97R
LONGVIEW       PTCLDY    76  72  87 S7        29.97S
PALESTINE      MOSUNNY   76  74  96 SE3       29.98S
NACOGDOCHES    PTCLDY    73  72  94 CALM      29.98S
$$

TEXAS HILL COUNTRY AND EDWARDS PLATEAU

CITY           SKY/WX    TMP DP  RH WIND       PRES   REMARKS
LLANO          SUNNY     79  72  78 CALM      29.99S
HORSESHOE BAY  FAIR      78  70  75 S6        29.97S
KERRVILLE      PTCLDY    74  69  84 S7        30.01S
FREDERICKSBRG  PTCLDY    75  65  72 S3        30.00S
ROCKSPRINGS    MOSUNNY   75  68  78 SE10      30.04S
HONDO          CLEAR     77  71  82 SE8       29.99S
UVALDE         MOSUNNY   78  72  81 SE6       29.98R
DEL RIO        CLEAR     84  69  60 SE10      29.93R
$$

SOUTHEAST TEXAS

CITY           SKY/WX    TMP DP  RH WIND       PRES   REMARKS
COLLEGE STN    PTCLDY    75  71  87 S3        29.96F
CALDWELL       MOSUNNY   73  72  94 CALM      29.99F
CROCKETT       NOT AVBL
BRENHAM        MOCLDY    75  73  92 CALM      29.97S
HUNTSVILLE     MOCLDY    76  72  87 S5        29.97F
CONROE         MOCLDY    73  71  93 CALM      29.97F
HOUSTON BUSH   CLEAR     75  73  94 CALM      29.96F
HOUSTON HOBBY  MOCLDY    77  73  87 CALM      29.94F
PERLAND        MOCLDY    77  73  87 SE3       29.96F
WHARTON        MOSUNNY   73  72  96 CALM      29.96S
$$

THE UPPER TEXAS COAST

CITY           SKY/WX    TMP DP  RH WIND       PRES   REMARKS
ORANGE         MOSUNNY   77  77 100 CALM      29.98S
PORT ARTHUR    PTCLDY    76  73  91 S3        29.96F
GALVESTON      PTCLDY    82  75  79 S10       29.96F
ANGLETON       PTCLDY    74  73  97 CALM      29.95F
BAY CITY       SUNNY     76  76 100 CALM      29.95S
$$

TEXAS COASTAL BEND, RIO GRANDE PLAINS DEEP SOUTH TEXAS

CITY           SKY/WX    TMP DP  RH WIND       PRES   REMARKS
VICTORIA       MOCLDY    77  74  90 CALM      29.95F
BEEVILLE       FAIR      76  76  98 CALM      29.94F
ROCKPORT       PTCLDY    83  76  79 S7        29.93F
PORT ARANSAS   MOSUNNY   82  77  84 S12G17    29.92F
PORT LAVACA    MOSUNNY   77  75  94 S3        29.94S
CORPUS CHRISTI MOCLDY    78  76  93 SE5       29.93F
KINGSVILLE NAS PTCLDY    77  77 100 CALM      29.93S
COTULLA        PTCLDY    79  72  79 SE9       29.95S
LAREDO         CLOUDY    81  75  81 SE8       29.95F
BROWNSVILLE    PTCLDY    81  79  94 SE7       29.91F
PORT ISABEL    CLEAR     82  77  84 SE10      29.91F
HEBBRONVILLE   CLOUDY    79  75  87 SE7       29.95F
MCALLEN        MOCLDY    80  78  94 SE3       29.92S
WESLACO        NOT AVBL
FALFURRIAS     MOSUNNY   68  66  92 E3        29.92F
EDINBURG       SUNNY     80  76  88 E3        29.92F
$$


USA.gov is the U.S. government's official web portal to all federal, state and local government web resources and services.